Location: Unspecified
(22.6800°N, 112.2000°E)
Time: 12:02:52
(UTC+08:00)

S-56A Canister/Altair - Pass Details

Date: 01 August 2021
Orbit: 632 x 2500 km, 38.9° (Epoch: 21 September)

Event Time Altitude Azimuth Distance (km) Brightness Sun altitude
Rises 11:03:21 0° 182° (S) 4,295 11.4 67.4°
Reaches altitude 10° 11:07:23 10° 162° (SSE) 3,667 11.3 68.4°
Maximum altitude 11:13:10 17° 125° (SE) 3,568 11.5 69.7°
Drops below altitude 10° 11:20:09 10° 90° (E) 4,584 11.9 71.3°
Sets 11:26:06 0° 74° (ENE) 5,888 12.3 72.6°
